EDT,Max TemperatureF,Mean TemperatureF,Min TemperatureF,Max Dew PointF,MeanDew PointF,Min DewpointF,Max Humidity, Mean Humidity, Min Humidity, Max Sea Level PressureIn, Mean Sea Level PressureIn, Min Sea Level PressureIn, Max VisibilityMiles, Mean VisibilityMiles, Min VisibilityMiles, Max Wind SpeedMPH, Mean Wind SpeedMPH, Max Gust SpeedMPH,PrecipitationIn, CloudCover, Events, WindDirDegrees
2013-5-1,66,59,51,57,54,46,100,78,56,30.39,30.33,30.25,10,9,2,14,8,20,0.02,7,Rain,84
2013-5-2,66,57,48,55,49,39,93,76,59,30.40,30.35,30.30,10,10,10,16,7,18,0.00,6,,102
2013-5-3,61,52,42,52,49,45,100,80,60,30.33,30.28,30.23,10,10,10,18,9,25,0.00,3,,85
2013-5-4,61,52,42,50,45,43,92,74,55,30.23,30.18,30.12,10,10,10,20,14,28,0.00,5,,85
2013-5-5,50,47,43,52,44,30,100,77,53,30.16,30.08,30.02,10,9,2,20,15,27,0.07,6,Rain,84
2013-5-6,54,51,47,57,54,52,100,100,100,30.04,29.97,29.91,10,8,1,22,14,31,1.25,8,Rain-Thunderstorm,82
2013-5-7,59,52,44,55,54,46,100,90,80,29.98,29.94,29.92,10,8,0,13,3,17,0.83,6,Fog-Rain-Thunderstorm,46
2013-5-8,57,50,43,55,51,46,100,97,93,30.06,30.00,29.95,10,6,0,7,2,,0.90,7,Fog-Rain,88
2013-5-9,74,59,44,61,55,46,100,73,46,30.14,30.09,30.04,10,8,0,12,4,18,0.00,2,Fog,285
2013-5-10,77,63,48,64,58,52,100,74,48,30.14,30.08,30.01,10,8,0,18,3,25,0.58,3,Fog-Rain-Thunderstorm,241
2013-5-11,71,63,54,66,62,55,100,82,64,30.02,29.93,29.85,10,7,0,14,4,25,0.23,6,Fog-Rain-Thunderstorm,270
2013-5-12,57,49,41,54,41,34,96,70,43,30.09,29.99,29.91,10,10,7,17,9,27,T,2,,294
2013-5-13,56,46,35,37,35,30,100,69,38,30.21,30.14,30.09,10,10,10,16,5,23,0.00,2,,292
2013-5-14,70,51,31,48,41,34,100,69,38,30.25,30.17,30.06,10,10,7,9,4,,0.00,1,,221
2013-5-15,85,66,46,63,57,48,100,70,40,30.09,30.04,29.97,10,10,10,12,5,21,0.00,0,,274
2013-5-16,78,67,56,61,58,54,93,69,45,30.09,30.04,30.00,10,10,10,13,5,18,T,1,Thunderstorm,279
2013-5-17,78,66,54,68,62,57,100,77,54,30.19,30.14,30.08,10,9,2,12,1,,0.18,2,Rain-Thunderstorm,81
2013-5-18,66,63,59,68,64,63,100,97,93,30.24,30.19,30.16,10,5,0,9,5,,1.10,8,Rain-Thunderstorm,100
2013-5-19,69,64,58,70,65,63,100,99,97,30.20,30.16,30.11,10,8,0,8,5,,0.33,8,Rain-Thunderstorm,99
2013-5-20,77,68,58,70,66,63,100,86,71,30.18,30.13,30.09,10,7,0,6,1,,0.00,6,Fog-Thunderstorm,271
2013-5-21,83,70,56,72,66,61,100,78,55,30.13,30.08,30.00,10,6,0,8,3,,0.02,4,Fog-Rain-Thunderstorm,250
2013-5-22,82,69,55,72,64,57,100,76,51,30.07,30.03,29.98,10,9,3,9,2,16,0.06,2,Rain-Thunderstorm,187
2013-5-23,76,67,58,66,64,61,100,81,62,30.02,29.97,29.87,10,9,2,17,4,30,0.26,5,Rain-Thunderstorm,270
2013-5-24,58,51,44,61,47,37,100,76,51,30.25,30.10,29.92,10,10,7,21,11,33,T,5,Rain,296
2013-5-25,65,52,38,45,37,32,82,58,34,30.33,30.27,30.23,10,10,10,14,9,23,0.00,0,,297
2013-5-26,68,56,44,46,44,43,86,62,37,30.30,30.27,30.23,10,10,10,10,4,17,0.00,2,,299
2013-5-27,74,59,44,61,53,43,100,78,55,30.33,30.28,30.21,10,10,10,8,2,,T,4,Rain,111
2013-5-28,81,66,51,66,61,55,100,73,46,30.28,30.23,30.19,10,10,7,10,4,16,0.00,1,,209
2013-5-29,84,70,55,66,63,57,100,72,44,30.30,30.25,30.21,10,9,2,7,3,,0.00,1,,236
2013-5-30,84,69,53,66,62,57,100,69,37,30.34,30.29,30.24,10,9,2,12,3,,0.00,0,,191
2013-5-31,82,68,54,68,63,57,100,74,48,30.29,30.24,30.18,10,10,4,9,3,17,0.00,1,,203